Location: Newark
(47.7394°N, 8.0008°E)
Time: 20:37:16
(UTC+00:00)

N. Korean satellite - Pass Details

Date: 18 December 2019
Orbit: 454 x 507 km, 97.2° (Epoch: 28 January)

Event Time Altitude Azimuth Distance (km) Brightness Sun altitude
Rises 04:42:56 0° 23° (NNE) 2,521 10.4 -23.9°
Reaches altitude 10° 04:45:16 10° 37° (NE) 1,630 9.5 -23.5°
Maximum altitude 04:48:13 25° 95° (E) 963 8.8 -23.0°
Drops below altitude 10° 04:51:08 10° 153° (SSE) 1,599 9.6 -22.5°
Sets 04:53:23 0° 167° (SSE) 2,463 10.5 -22.1°
